KD7KCN-5 Weather Reports


Display with metric or nautical units.
time (UTC)temp
F
wind
direction
speed
MPH
gust
MPH
rain 1hr
in
rain 24hr
in
rain mn
in
humidity
%
barometer
mb
20260509042137 75 255 13.0 20.0 0.00 0.00 0.00 10 1014.0
20260509041137 75 257 10.0 16.0 0.00 0.00 0.00 10 1013.9
20260509040137 75 258 9.0 15.0 0.00 0.00 0.00 10 1013.8
20260509035137 75 257 8.0 16.0 0.00 0.00 0.00 10 1013.7
20260509034137 75 255 11.0 18.0 0.00 0.00 0.00 10 1013.7
20260509033137 75 257 9.0 12.0 0.00 0.00 0.00 9 1013.6
20260509032137 75 259 9.0 15.0 0.00 0.00 0.00 10 1013.5
20260509031137 75 258 8.0 16.0 0.00 0.00 0.00 11 1013.4
20260509030137 75 264 6.0 12.0 0.00 0.00 0.00 11 1013.3
20260509025137 75 259 8.0 13.0 0.00 0.00 0.00 12 1013.2
20260509024137 75 264 8.0 11.0 0.00 0.00 0.00 11 1013.1
20260509023137 76 283 6.0 11.0 0.00 0.00 0.00 12 1013.0
20260509022137 76 287 6.0 10.0 0.00 0.00 0.00 11 1012.9
20260509020137 77 332 7.0 14.0 0.00 0.00 0.00 11 1012.8
20260509014137 80 243 5.0 10.0 0.00 0.00 0.00 10 1012.5
20260509013137 80 265 5.0 11.0 0.00 0.00 0.00 9 1012.6
20260509012137 81 275 8.0 16.0 0.00 0.00 0.00 9 1012.6
20260509011137 83 319 11.0 18.0 0.00 0.00 0.00 9 1012.5
20260509010137 83 343 9.0 15.0 0.00 0.00 0.00 9 1012.5
20260509005137 83 335 5.0 18.0 0.00 0.00 0.00 9 1012.6
20260509004137 83 343 5.0 11.0 0.00 0.00 0.00 10 1012.6
20260509003137 83 262 9.0 21.0 0.00 0.00 0.00 9 1012.7
20260509002137 85 338 8.0 21.0 0.00 0.00 0.00 10 1012.6
20260509001137 85 347 12.0 18.0 0.00 0.00 0.00 9 1012.5
20260509000137 86 16 4.0 13.0 0.00 0.00 0.00 10 1012.6
20260508235138 86 341 7.0 14.0 0.00 0.00 0.00 9 1012.7
20260508234137 85 346 1.0 10.0 0.00 0.00 0.00 10 1012.6
20260508233137 85 330 8.0 21.0 0.00 0.00 0.00 10 1012.8
20260508231138 85 349 5.0 12.0 0.00 0.00 0.00 11 1012.9
20260508230138 85 338 7.0 23.0 0.00 0.00 0.00 10 1013.1
20260508225137 85 347 10.0 19.0 0.00 0.00 0.00 11 1013.0
20260508224137 85 346 9.0 19.0 0.00 0.00 0.00 12 1013.3
20260508223137 84 340 9.0 20.0 0.00 0.00 0.00 11 1013.4
20260508222138 84 335 13.0 20.0 0.00 0.00 0.00 11 1013.5
20260508221138 84 357 11.0 22.0 0.00 0.00 0.00 12 1013.7
20260508220138 84 341 3.0 22.0 0.00 0.00 0.00 11 1013.8
20260508215137 84 352 15.0 27.0 0.00 0.00 0.00 12 1013.7
20260508214137 85 16 7.0 18.0 0.00 0.00 0.00 13 1014.0
20260508213137 84 30 2.0 12.0 0.00 0.00 0.00 13 1014.1
20260508212138 83 340 5.0 13.0 0.00 0.00 0.00 14 1014.4
20260508211139 82 347 16.0 23.0 0.00 0.00 0.00 13 1014.4
20260508210145 84 33 12.0 18.0 0.00 0.00 0.00 12 1013.9
20260508205138 84 352 14.0 21.0 0.00 0.00 0.00 12 1014.1
20260508204138 84 359 13.0 18.0 0.00 0.00 0.00 12 1014.1
20260508203138 83 236 3.0 15.0 0.00 0.00 0.00 11 1014.4
20260508202138 82 335 11.0 21.0 0.00 0.00 0.00 13 1014.6
20260508201138 81 336 5.0 17.0 0.00 0.00 0.00 13 1014.5
20260508200138 82 341 10.0 18.0 0.00 0.00 0.00 14 1014.6
20260508195138 80 310 12.0 22.0 0.00 0.00 0.00 12 1014.8
20260508194138 82 338 11.0 23.0 0.00 0.00 0.00 13 1014.9
20260508193138 82 340 11.0 20.0 0.00 0.00 0.00 14 1014.9
20260508192138 83 341 8.0 18.0 0.00 0.00 0.00 13 1015.0
20260508191138 82 319 2.0 25.0 0.00 0.00 0.00 13 1015.2
20260508190138 82 1 12.0 20.0 0.00 0.00 0.00 14 1015.2
20260508185138 82 345 12.0 24.0 0.00 0.00 0.00 13 1015.4
20260508184138 82 353 11.0 22.0 0.00 0.00 0.00 15 1015.5
20260508183138 82 341 12.0 24.0 0.00 0.00 0.00 15 1015.7
20260508182138 81 360 7.0 22.0 0.00 0.00 0.00 14 1015.8
20260508181138 81 342 15.0 22.0 0.00 0.00 0.00 14 1015.6
20260508180139 81 355 3.0 17.0 0.00 0.00 0.00 14 1015.9
20260508175138 81 343 6.0 25.0 0.00 0.00 0.00 14 1016.1
20260508174139 81 351 5.0 17.0 0.00 0.00 0.00 16 1016.1
20260508173138 80 344 5.0 17.0 0.00 0.00 0.00 16 1016.2
20260508172138 81 333 6.0 16.0 0.00 0.00 0.00 14 1016.1
20260508171138 80 338 3.0 14.0 0.00 0.00 0.00 16 1016.2
20260508170139 80 359 5.0 16.0 0.00 0.00 0.00 20 1016.1
20260508165139 79 13 11.0 20.0 0.00 0.00 0.00 18 1016.1
20260508164138 79 346 14.0 21.0 0.00 0.00 0.00 19 1016.1
20260508163139 78 21 12.0 17.0 0.00 0.00 0.00 18 1016.2
20260508162138 78 341 7.0 17.0 0.00 0.00 0.00 19 1016.4
20260508161138 78 330 6.0 13.0 0.00 0.00 0.00 18 1016.2
20260508160138 78 336 8.0 17.0 0.00 0.00 0.00 18 1016.4
20260508155138 77 354 7.0 14.0 0.00 0.00 0.00 19 1016.4
20260508154138 76 339 7.0 18.0 0.00 0.00 0.00 20 1016.4
20260508153138 76 338 8.0 18.0 0.00 0.00 0.00 20 1016.5
20260508151139 75 338 3.0 11.0 0.00 0.00 0.00 23 1016.6
20260508150138 74 339 2.0 13.0 0.00 0.00 0.00 23 1016.6
20260508145139 74 336 9.0 15.0 0.00 0.00 0.00 21 1015.8
20260508144139 73 334 5.0 15.0 0.00 0.00 0.00 22 1015.8
20260508143139 74 337 2.0 10.0 0.00 0.00 0.00 23 1015.8
20260508142139 73 346 4.0 11.0 0.00 0.00 0.00 22 1015.8
20260508141138 72 341 5.0 11.0 0.00 0.00 0.00 23 1015.7
20260508140139 71 337 5.0 13.0 0.00 0.00 0.00 23 1015.7
20260508135139 70 332 1.0 12.0 0.00 0.00 0.00 25 1015.7
20260508134138 69 336 4.0 11.0 0.00 0.00 0.00 25 1015.9
20260508133138 69 335 3.0 14.0 0.00 0.00 0.00 24 1015.8
20260508132138 68 334 3.0 14.0 0.00 0.00 0.00 25 1015.7
20260508131139 67 276 4.0 14.0 0.00 0.00 0.00 23 1015.7
20260508130139 67 300 7.0 15.0 0.00 0.00 0.00 23 1015.7
20260508125140 66 254 6.0 14.0 0.00 0.00 0.00 23 1015.7
20260508124139 66 270 6.0 11.0 0.00 0.00 0.00 22 1015.7
20260508123140 67 260 5.0 16.0 0.00 0.00 0.00 22 1015.6
20260508122139 65 254 9.0 16.0 0.00 0.00 0.00 23 1015.5
20260508121139 64 0 0.0 8.0 0.00 0.00 0.00 23 1015.5
20260508120139 65 277 1.0 11.0 0.00 0.00 0.00 22 1015.6
20260508115140 65 265 4.0 14.0 0.00 0.00 0.00 22 1015.6
20260508114139 65 330 3.0 12.0 0.00 0.00 0.00 22 1015.6
20260508113139 66 335 6.0 12.0 0.00 0.00 0.00 21 1015.5
20260508112139 66 262 8.0 14.0 0.00 0.00 0.00 21 1015.6
20260508111139 65 283 8.0 13.0 0.00 0.00 0.00 21 1014.8
20260508105139 64 0 0.0 2.0 0.00 0.00 0.00 22 1015.0
20260508104139 64 0 0.0 2.0 0.00 0.00 0.00 22 1015.1
20260508103139 64 0 0.0 0.0 0.00 0.00 0.00 22 1015.1
20260508102140 64 0 0.0 0.0 0.00 0.00 0.00 22 1015.1
20260508100139 64 0 0.0 0.0 0.00 0.00 0.00 21 1015.1
20260508095139 63 0 0.0 0.0 0.00 0.00 0.00 22 1015.0
20260508094139 62 0 0.0 2.0 0.00 0.00 0.00 23 1015.1
20260508093139 62 0 0.0 5.0 0.00 0.00 0.00 23 1015.1
20260508092139 62 15 1.0 6.0 0.00 0.00 0.00 23 1015.1
20260508091139 63 353 3.0 8.0 0.00 0.00 0.00 23 1015.1
20260508090139 63 335 5.0 12.0 0.00 0.00 0.00 22 1015.2
20260508084140 63 339 11.0 15.0 0.00 0.00 0.00 22 1015.6
20260508083140 65 0 0.0 2.0 0.00 0.00 0.00 21 1015.5
20260508082140 65 0 0.0 1.0 0.00 0.00 0.00 21 1015.4
20260508081140 65 0 0.0 1.0 0.00 0.00 0.00 21 1015.5
20260508080139 65 0 0.0 3.0 0.00 0.00 0.00 21 1015.5
20260508075140 65 0 0.0 4.0 0.00 0.00 0.00 21 1015.4
20260508074139 65 0 0.0 3.0 0.00 0.00 0.00 21 1015.4
20260508073139 66 120 1.0 10.0 0.00 0.00 0.00 20 1015.4
20260508072140 66 115 2.0 8.0 0.00 0.00 0.00 20 1015.3
20260508071140 66 0 0.0 6.0 0.00 0.00 0.00 20 1015.3
20260508070140 66 173 4.0 8.0 0.00 0.00 0.00 20 1015.4
20260508065139 66 173 1.0 9.0 0.00 0.00 0.00 19 1015.4
20260508064139 66 0 0.0 3.0 0.00 0.00 0.00 20 1015.4
20260508063139 67 0 0.0 10.0 0.00 0.00 0.00 19 1015.4
20260508062139 67 0 0.0 2.0 0.00 0.00 0.00 19 1015.4
20260508061139 67 0 0.0 0.0 0.00 0.00 0.00 19 1015.5
20260508060140 67 0 0.0 5.0 0.00 0.00 0.00 18 1015.5
20260508055140 68 154 3.0 10.0 0.00 0.00 0.00 18 1015.6
20260508054140 67 198 2.0 12.0 0.00 0.00 0.00 19 1015.7
20260508053140 66 0 0.0 4.0 0.00 0.00 0.00 20 1015.8
20260508052140 66 0 0.0 4.0 0.00 0.00 0.00 19 1015.8
20260508051140 67 0 0.0 5.0 0.00 0.00 0.00 19 1015.8
20260508050140 67 0 0.0 5.0 0.00 0.00 0.00 19 1015.7
20260508045140 66 0 0.0 2.0 0.00 0.00 0.00 19 1015.8
20260508044140 66 0 0.0 3.0 0.00 0.00 0.00 19 1015.8
20260508043140 66 0 0.0 1.0 0.00 0.00 0.00 19 1015.8